Flag for U.S.A. Weather past 2 weeks in Clovis, New Mexico, U.S.A.

Now
56 °F

Clear.


Feels Like: 56 °F
Forecast: 57 / 81 °F
Wind: 3 mph from East

Location: Cannon Air Force Base / Clovis

Current Time: May 29, 2015 at 2:31:21 AM

Latest Report: May 29, 2015 at 1:58 AM


Visibility: 10 mi

Pressure: 29.90 "Hg

Humidity: 92%

Dew point: 53 °F

Location of ClovisLocation

Historic Weather in Clovis — Graph

°F

Clovis temperature yesterday

Maximum temperature yesterday: 77 °F (at 1:58 PM)
Minimum temperature yesterday: 58 °F (at 4:58 AM)
Average temperature yesterday: 65 °F

Past Weeks' High & Low Weather Summary

 TemperatureHumidityPressure
High84 °F (May 27, 2:58 PM)100% (May 15, 5:58 AM)30.28 "Hg (May 15, 5:58 AM)
Low45 °F (May 21, 8:48 AM)18% (May 17, 5:58 PM)29.64 "Hg (May 16, 1:58 PM)
Average62 °F68%29.90 "Hg
* Reported May 14 12:58 AM — May 29 12:58 AM, Clovis, Weather by CustomWeather, © 2015

Note: Actual official high and low records may vary slightly from our data, if they occured in-between our weather recording intervals... More about our weather records

Advertising

Clovis weather history for previous 24 hours

 ConditionsComfort  
Time TempWeatherWind HumidityBarometerVisibility
12:58 AM
Fri, May 29
57 °FClear.6 mph90%29.90 "Hg10 mi
11:58 PM
Thu, May 28
60 °FClear.9 mph86%29.87 "Hg10 mi
10:58 PM59 °FClear.5 mph86%29.84 "Hg10 mi
9:58 PM61 °FClear.9 mph85%29.80 "Hg10 mi
8:58 PM62 °FClear.7 mph81%29.80 "Hg10 mi
7:58 PM62 °FSunny.12 mph83%29.81 "Hg10 mi
6:58 PM60 °FSunny.12 mph90%29.81 "Hg10 mi
5:58 PM61 °FThunderstorms. Sunny.15 mph92%29.81 "Hg10 mi
4:58 PM61 °FThunderstorms. Partly sunny.24 mph91%29.85 "Hg4 mi
3:59 PM66 °FThunderstorms. Partly sunny.18 mph78%29.97 "Hg2 mi
2:58 PM70 °FScattered clouds.16 mph69%29.85 "Hg10 mi
1:58 PM77 °FBroken clouds.10 mph59%29.85 "Hg10 mi
12:58 PM77 °FBroken clouds.17 mph62%29.87 "Hg10 mi
11:58 AM75 °FPassing clouds.16 mph65%29.89 "Hg10 mi
10:58 AM73 °FBroken clouds.14 mph68%29.93 "Hg10 mi
9:58 AM71 °FPartly sunny.15 mph76%29.93 "Hg10 mi
8:58 AM67 °FPassing clouds.15 mph91%29.94 "Hg9 mi
8:48 AM66 °FScattered clouds.13 mph94%30.09 "Hg8 mi
7:58 AM62 °FFog.7 mph100%29.95 "Hg2 mi
6:58 AM62 °FFog.13 mph100%29.92 "Hg1 mi
5:58 AM61 °FFog.12 mph100%29.90 "Hg0 mi
4:58 AM58 °FClear.9 mph96%29.91 "Hg10 mi
3:58 AM59 °FClear.8 mph91%29.92 "Hg10 mi
2:58 AM59 °FPassing clouds.6 mph91%29.92 "Hg10 mi
Weather by CustomWeather, © 2015

See weather overviewHow to use our weather pages